sat.trackr.live / text

‹ back to catalog

STARLINK-35566

NORAD 66061 · 2025-235D

PAYLOAD ACTIVE UNKNOWN

§ Identity

Operator
Country
US
Launch date
2025-10-19
Launch site
AFETR
Launch vehicle
Mass (kg)
RCS (m²)

Purposes: comms

External: N2YO · Heavens-Above · Gunter

§ Orbital elements

Epoch: 2026-05-24T17:04:16.970592Z

Period
94.11 min
Inclination
53.1583°
Eccentricity
0.0001348
Mean motion
15.30186555 rev/d
Perigee alt
474.3 km
Apogee alt
476.2 km
Semi-major
6,853.4 km
B*
6.7086e-4
RAAN
251.9512°
Arg perigee
70.3587°
Mean anomaly
289.7560°
Rev number
3,456

§ Raw data

STARLINK-355661 66061U 25235D   26144.71130753  .00019554  00000+0  67086-3 0  99932 66061  53.1583 251.9512 0001348  70.3587 289.7560 15.30186555 34561

JSON: /api/v1/satellites/66061 · /tle

For live sub-satellite position, see the globe view (requires WebGL).

§ Visibility from observer

Set your observer location to see the next 7 days of passes ≥ 10°. The values pass through the URL so the page stays shareable.

No JS? Fill the form by hand. The geolocation button needs JavaScript.